Time,TemperatureF,DewpointF,PressureIn,WindDirection,WindDirectionDegrees,WindSpeedMPH,WindSpeedGustMPH,Humidity,HourlyPrecipIn,Conditions,Clouds,dailyrainin,SoftwareType,DateUTC
2015-05-04 00:05:00,70.7,53.2,29.94,South,182,6.0,12.0,54,0.00,,,0.00,Wunderground v.1.15,2015-05-04 05:05:00,
2015-05-04 00:11:00,70.7,53.7,29.94,SSE,154,6.0,11.0,55,0.00,,,0.00,Wunderground v.1.15,2015-05-04 05:11:00,
2015-05-04 00:17:00,70.7,53.7,29.95,SSW,197,7.0,11.0,55,0.00,,,0.00,Wunderground v.1.15,2015-05-04 05:17:00,
2015-05-04 00:23:00,70.6,53.6,29.95,SSW,200,6.0,7.0,55,0.00,,,0.00,Wunderground v.1.15,2015-05-04 05:23:00,
2015-05-04 00:28:00,70.6,53.6,29.95,SSE,161,6.0,12.0,55,0.00,,,0.00,Wunderground v.1.15,2015-05-04 05:28:00,
2015-05-04 00:34:00,70.6,53.6,29.95,South,173,6.0,10.0,55,0.00,,,0.00,Wunderground v.1.15,2015-05-04 05:34:00,
2015-05-04 00:40:00,70.4,54.0,29.95,SSW,202,6.0,9.0,56,0.00,,,0.00,Wunderground v.1.15,2015-05-04 05:40:00,
2015-05-04 00:46:00,70.2,53.8,29.95,South,187,6.0,9.0,56,0.00,,,0.00,Wunderground v.1.15,2015-05-04 05:46:00,
2015-05-04 00:51:00,70.0,54.1,29.95,SSW,196,6.0,6.0,57,0.00,,,0.00,Wunderground v.1.15,2015-05-04 05:51:00,
2015-05-04 00:57:00,69.8,53.9,29.95,South,169,6.0,7.0,57,0.00,,,0.00,Wunderground v.1.15,2015-05-04 05:57:00,
2015-05-04 01:03:00,69.5,54.1,29.95,SSE,158,6.0,9.0,58,0.00,,,0.00,Wunderground v.1.15,2015-05-04 06:03:00,
2015-05-04 01:09:00,69.4,54.0,29.95,SSE,166,6.0,9.0,58,0.00,,,0.00,Wunderground v.1.15,2015-05-04 06:09:00,
2015-05-04 01:15:00,69.3,53.9,29.95,SSW,203,6.0,10.0,58,0.00,,,0.00,Wunderground v.1.15,2015-05-04 06:15:00,
2015-05-04 01:20:00,69.3,54.4,29.95,SSW,208,6.0,6.0,59,0.00,,,0.00,Wunderground v.1.15,2015-05-04 06:20:00,
2015-05-04 01:26:00,69.3,54.4,29.95,SSW,198,6.0,7.0,59,0.00,,,0.00,Wunderground v.1.15,2015-05-04 06:26:00,
2015-05-04 01:32:00,69.1,54.2,29.95,SSW,194,6.0,8.0,59,0.00,,,0.00,Wunderground v.1.15,2015-05-04 06:32:00,
2015-05-04 01:38:00,69.0,54.5,29.95,South,179,6.0,8.0,60,0.00,,,0.00,Wunderground v.1.15,2015-05-04 06:38:00,
2015-05-04 01:44:00,68.7,54.3,29.95,South,169,5.0,10.0,60,0.00,,,0.00,Wunderground v.1.15,2015-05-04 06:44:00,
2015-05-04 01:49:00,68.5,54.1,29.95,South,182,5.0,10.0,60,0.00,,,0.00,Wunderground v.1.15,2015-05-04 06:49:00,
2015-05-04 01:55:00,68.2,54.2,29.94,South,183,6.0,7.0,61,0.00,,,0.00,Wunderground v.1.15,2015-05-04 06:55:00,
2015-05-04 02:00:00,67.9,54.4,29.94,South,172,6.0,7.0,62,0.00,,,0.00,Wunderground v.1.15,2015-05-04 07:00:00,
2015-05-04 02:05:00,67.7,54.2,29.94,SSE,150,6.0,11.0,62,0.00,,,0.00,Wunderground v.1.15,2015-05-04 07:05:00,
2015-05-04 02:11:00,67.5,54.5,29.94,South,190,6.0,8.0,63,0.00,,,0.00,Wunderground v.1.15,2015-05-04 07:11:00,
2015-05-04 02:17:00,67.4,54.4,29.94,SSE,165,7.0,8.0,63,0.00,,,0.00,Wunderground v.1.15,2015-05-04 07:17:00,
2015-05-04 02:23:00,67.3,54.7,29.94,SSE,154,6.0,11.0,64,0.00,,,0.00,Wunderground v.1.15,2015-05-04 07:23:00,
2015-05-04 02:28:00,67.3,54.7,29.94,SSE,160,6.0,11.0,64,0.00,,,0.00,Wunderground v.1.15,2015-05-04 07:28:00,
2015-05-04 02:34:00,67.2,54.6,29.94,SSE,158,5.0,8.0,64,0.00,,,0.00,Wunderground v.1.15,2015-05-04 07:34:00,
2015-05-04 02:40:00,67.0,54.4,29.94,South,177,5.0,6.0,64,0.00,,,0.00,Wunderground v.1.15,2015-05-04 07:40:00,
2015-05-04 02:46:00,66.7,54.6,29.94,South,184,5.0,8.0,65,0.00,,,0.00,Wunderground v.1.15,2015-05-04 07:46:00,
2015-05-04 02:52:00,66.5,54.8,29.94,South,169,5.0,5.0,66,0.00,,,0.00,Wunderground v.1.15,2015-05-04 07:52:00,
2015-05-04 02:57:00,66.3,54.6,29.94,South,171,5.0,8.0,66,0.00,,,0.00,Wunderground v.1.15,2015-05-04 07:57:00,
2015-05-04 03:03:00,66.1,54.8,29.94,South,186,4.0,8.0,67,0.00,,,0.00,Wunderground v.1.15,2015-05-04 08:03:00,
2015-05-04 03:09:00,65.9,54.6,29.94,SSE,150,5.0,8.0,67,0.00,,,0.00,Wunderground v.1.15,2015-05-04 08:09:00,
2015-05-04 03:15:00,65.8,54.5,29.94,SSE,157,5.0,6.0,67,0.00,,,0.00,Wunderground v.1.15,2015-05-04 08:15:00,
2015-05-04 03:20:00,65.8,54.9,29.94,SSE,154,5.0,5.0,68,0.00,,,0.00,Wunderground v.1.15,2015-05-04 08:20:00,
2015-05-04 03:26:00,65.8,54.9,29.94,South,172,5.0,8.0,68,0.00,,,0.00,Wunderground v.1.15,2015-05-04 08:26:00,
2015-05-04 03:32:00,65.9,55.0,29.94,SSE,167,5.0,6.0,68,0.00,,,0.00,Wunderground v.1.15,2015-05-04 08:32:00,
2015-05-04 03:38:00,65.9,55.0,29.94,South,190,5.0,7.0,68,0.00,,,0.00,Wunderground v.1.15,2015-05-04 08:38:00,
2015-05-04 03:44:00,65.8,54.5,29.94,South,181,6.0,11.0,67,0.00,,,0.00,Wunderground v.1.15,2015-05-04 08:44:00,
2015-05-04 03:49:00,65.8,54.9,29.94,South,181,6.0,11.0,68,0.00,,,0.00,Wunderground v.1.15,2015-05-04 08:49:00,
2015-05-04 03:55:00,65.8,54.9,29.94,South,173,6.0,7.0,68,0.00,,,0.00,Wunderground v.1.15,2015-05-04 08:55:00,
2015-05-04 04:00:00,65.8,54.9,29.94,SSW,196,6.0,9.0,68,0.00,,,0.00,Wunderground v.1.15,2015-05-04 09:00:00,
2015-05-04 04:05:00,65.8,54.9,29.95,SE,146,6.0,9.0,68,0.00,,,0.00,Wunderground v.1.15,2015-05-04 09:05:00,
2015-05-04 04:11:00,65.8,54.9,29.95,SSE,167,5.0,7.0,68,0.00,,,0.00,Wunderground v.1.15,2015-05-04 09:11:00,
2015-05-04 04:17:00,65.8,54.9,29.95,SSE,163,6.0,8.0,68,0.00,,,0.00,Wunderground v.1.15,2015-05-04 09:17:00,
2015-05-04 04:23:00,65.8,54.9,29.95,SSE,165,6.0,9.0,68,0.00,,,0.00,Wunderground v.1.15,2015-05-04 09:23:00,
2015-05-04 04:29:00,65.9,55.0,29.95,SSE,160,6.0,11.0,68,0.00,,,0.00,Wunderground v.1.15,2015-05-04 09:29:00,
2015-05-04 04:34:00,65.9,55.4,29.95,South,185,5.0,8.0,69,0.00,,,0.00,Wunderground v.1.15,2015-05-04 09:34:00,
2015-05-04 04:40:00,65.9,55.4,29.96,South,189,5.0,5.0,69,0.00,,,0.00,Wunderground v.1.15,2015-05-04 09:40:00,
2015-05-04 04:46:00,65.9,55.4,29.96,SSE,164,5.0,10.0,69,0.00,,,0.00,Wunderground v.1.15,2015-05-04 09:46:00,
2015-05-04 04:52:00,65.9,56.2,29.96,South,169,6.0,6.0,71,0.00,,,0.00,Wunderground v.1.15,2015-05-04 09:52:00,
2015-05-04 04:57:00,65.4,56.5,29.96,SW,216,6.0,6.0,73,0.00,,,0.00,Wunderground v.1.15,2015-05-04 09:57:00,
2015-05-04 05:03:00,64.8,56.7,29.96,South,180,5.0,8.0,75,0.00,,,0.00,Wunderground v.1.15,2015-05-04 10:03:00,
2015-05-04 05:09:00,64.3,56.9,29.97,SSE,165,5.0,8.0,77,0.00,,,0.01,Wunderground v.1.15,2015-05-04 10:09:00,
2015-05-04 05:15:00,64.0,57.0,29.97,South,184,5.0,7.0,78,0.00,,,0.01,Wunderground v.1.15,2015-05-04 10:15:00,
2015-05-04 05:21:00,63.9,56.5,29.97,South,174,5.0,6.0,77,0.00,,,0.01,Wunderground v.1.15,2015-05-04 10:21:00,
2015-05-04 05:26:00,64.0,56.6,29.98,South,187,5.0,6.0,77,0.00,,,0.01,Wunderground v.1.15,2015-05-04 10:26:00,
2015-05-04 05:32:00,64.1,56.7,29.98,South,171,4.0,8.0,77,0.00,,,0.01,Wunderground v.1.15,2015-05-04 10:32:00,
2015-05-04 05:38:00,64.4,57.0,29.98,SSW,205,5.0,9.0,77,0.00,,,0.01,Wunderground v.1.15,2015-05-04 10:38:00,
2015-05-04 05:44:00,64.4,57.0,29.99,SSE,165,6.0,10.0,77,0.00,,,0.01,Wunderground v.1.15,2015-05-04 10:44:00,
2015-05-04 05:49:00,64.4,57.0,29.99,SSE,165,6.0,10.0,77,0.00,,,0.01,Wunderground v.1.15,2015-05-04 10:49:00,
2015-05-04 05:55:00,64.5,57.1,29.99,South,175,6.0,9.0,77,0.00,,,0.01,Wunderground v.1.15,2015-05-04 10:55:00,
2015-05-04 06:00:00,64.6,57.2,29.99,SSW,196,6.0,7.0,77,0.00,,,0.01,Wunderground v.1.15,2015-05-04 11:00:00,
2015-05-04 06:05:00,64.7,57.3,29.99,South,171,5.0,9.0,77,0.00,,,0.01,Wunderground v.1.15,2015-05-04 11:05:00,
2015-05-04 06:11:00,64.8,57.4,30.00,South,179,5.0,5.0,77,0.00,,,0.01,Wunderground v.1.15,2015-05-04 11:11:00,
2015-05-04 06:17:00,64.9,57.5,30.00,South,175,5.0,8.0,77,0.00,,,0.01,Wunderground v.1.15,2015-05-04 11:17:00,
2015-05-04 06:23:00,65.0,57.6,30.01,South,185,5.0,7.0,77,0.00,,,0.01,Wunderground v.1.15,2015-05-04 11:23:00,
2015-05-04 06:29:00,65.1,57.3,30.01,SSW,207,6.0,7.0,76,0.00,,,0.01,Wunderground v.1.15,2015-05-04 11:29:00,
2015-05-04 06:34:00,65.2,57.4,30.01,South,183,5.0,6.0,76,0.00,,,0.01,Wunderground v.1.15,2015-05-04 11:34:00,
2015-05-04 06:40:00,65.3,57.5,30.02,SSW,193,5.0,5.0,76,0.00,,,0.01,Wunderground v.1.15,2015-05-04 11:40:00,
2015-05-04 06:46:00,65.4,57.6,30.02,SSE,162,5.0,13.0,76,0.00,,,0.01,Wunderground v.1.15,2015-05-04 11:46:00,
2015-05-04 06:52:00,65.4,57.6,30.03,South,183,6.0,7.0,76,0.00,,,0.01,Wunderground v.1.15,2015-05-04 11:52:00,
2015-05-04 06:57:00,65.4,58.0,30.03,South,175,6.0,7.0,77,0.00,,,0.01,Wunderground v.1.15,2015-05-04 11:57:00,
2015-05-04 07:03:00,65.4,58.0,30.03,SSW,200,6.0,6.0,77,0.00,,,0.01,Wunderground v.1.15,2015-05-04 12:03:00,
2015-05-04 07:09:00,65.4,58.4,30.04,SSW,195,6.0,8.0,78,0.00,,,0.01,Wunderground v.1.15,2015-05-04 12:09:00,
2015-05-04 07:15:00,65.4,58.4,30.04,South,179,5.0,7.0,78,0.00,,,0.01,Wunderground v.1.15,2015-05-04 12:15:00,
2015-05-04 07:21:00,65.4,58.7,30.05,SSW,201,5.0,6.0,79,0.00,,,0.01,Wunderground v.1.15,2015-05-04 12:21:00,
2015-05-04 07:26:00,65.5,58.8,30.05,SSW,199,4.0,6.0,79,0.00,,,0.01,Wunderground v.1.15,2015-05-04 12:26:00,
2015-05-04 07:32:00,65.5,58.8,30.05,SW,214,3.0,4.0,79,0.00,,,0.01,Wunderground v.1.15,2015-05-04 12:32:00,
2015-05-04 07:38:00,65.7,59.0,30.06,SSW,205,3.0,4.0,79,0.00,,,0.01,Wunderground v.1.15,2015-05-04 12:38:00,
2015-05-04 07:44:00,65.8,59.5,30.06,West,275,3.0,4.0,80,0.00,,,0.01,Wunderground v.1.15,2015-05-04 12:44:00,
2015-05-04 07:49:00,65.8,59.5,30.06,West,272,2.0,4.0,80,0.00,,,0.01,Wunderground v.1.15,2015-05-04 12:49:00,
2015-05-04 07:55:00,66.0,59.3,30.06,West,277,1.0,3.0,79,0.00,,,0.01,Wunderground v.1.15,2015-05-04 12:55:00,
2015-05-04 08:00:00,66.2,59.8,30.06,West,275,1.0,1.0,80,0.00,,,0.01,Wunderground v.1.15,2015-05-04 13:00:00,
2015-05-04 08:06:00,66.5,59.4,30.06,West,276,1.0,1.0,78,0.00,,,0.01,Wunderground v.1.15,2015-05-04 13:06:00,
2015-05-04 08:11:00,66.6,59.5,30.06,West,275,0.0,0.0,78,0.00,,,0.01,Wunderground v.1.15,2015-05-04 13:11:00,
2015-05-04 08:17:00,66.8,59.7,30.06,West,279,0.0,2.0,78,0.00,,,0.01,Wunderground v.1.15,2015-05-04 13:17:00,
2015-05-04 08:23:00,67.2,60.1,30.06,West,275,1.0,4.0,78,0.00,,,0.01,Wunderground v.1.15,2015-05-04 13:23:00,
2015-05-04 08:29:00,67.3,59.8,30.06,West,268,2.0,4.0,77,0.00,,,0.01,Wunderground v.1.15,2015-05-04 13:29:00,
2015-05-04 08:34:00,67.7,60.2,30.07,West,269,1.0,2.0,77,0.00,,,0.01,Wunderground v.1.15,2015-05-04 13:34:00,
2015-05-04 08:40:00,68.1,60.2,30.07,West,270,1.0,3.0,76,0.00,,,0.01,Wunderground v.1.15,2015-05-04 13:40:00,
2015-05-04 08:46:00,68.2,60.7,30.07,WSW,252,3.0,5.0,77,0.00,,,0.01,Wunderground v.1.15,2015-05-04 13:46:00,
2015-05-04 08:52:00,68.2,60.7,30.06,SSW,206,4.0,4.0,77,0.00,,,0.01,Wunderground v.1.15,2015-05-04 13:52:00,
2015-05-04 08:58:00,68.3,60.4,30.07,SSW,211,3.0,4.0,76,0.00,,,0.01,Wunderground v.1.15,2015-05-04 13:58:00,
2015-05-04 09:03:00,68.8,61.3,30.07,SSW,208,1.0,2.0,77,0.00,,,0.01,Wunderground v.1.15,2015-05-04 14:03:00,
2015-05-04 09:09:00,69.2,61.3,30.07,SSW,211,1.0,5.0,76,0.00,,,0.01,Wunderground v.1.15,2015-05-04 14:09:00,
2015-05-04 09:15:00,69.4,60.8,30.07,SSW,211,2.0,7.0,74,0.00,,,0.01,Wunderground v.1.15,2015-05-04 14:15:00,
2015-05-04 09:21:00,69.4,60.8,30.06,SSW,210,4.0,4.0,74,0.00,,,0.01,Wunderground v.1.15,2015-05-04 14:21:00,
2015-05-04 09:26:00,69.5,60.5,30.06,SSW,197,5.0,9.0,73,0.00,,,0.01,Wunderground v.1.15,2015-05-04 14:26:00,
2015-05-04 09:32:00,70.0,60.9,30.06,South,181,6.0,9.0,73,0.00,,,0.01,Wunderground v.1.15,2015-05-04 14:32:00,
2015-05-04 09:38:00,70.4,60.5,30.06,South,185,6.0,11.0,71,0.00,,,0.01,Wunderground v.1.15,2015-05-04 14:38:00,
2015-05-04 09:44:00,70.8,60.5,30.06,SSW,196,7.0,9.0,70,0.00,,,0.01,Wunderground v.1.15,2015-05-04 14:44:00,
2015-05-04 09:50:00,71.4,61.1,30.05,South,188,5.0,5.0,70,0.00,,,0.01,Wunderground v.1.15,2015-05-04 14:50:00,
2015-05-04 09:55:00,71.8,61.1,30.05,SSW,197,5.0,8.0,69,0.00,,,0.01,Wunderground v.1.15,2015-05-04 14:55:00,
2015-05-04 10:00:00,72.2,61.9,30.06,SSW,201,5.0,5.0,70,0.00,,,0.01,Wunderground v.1.15,2015-05-04 15:00:00,
2015-05-04 10:06:00,72.9,61.3,30.05,SSW,206,5.0,6.0,67,0.00,,,0.01,Wunderground v.1.15,2015-05-04 15:06:00,
2015-05-04 10:11:00,73.3,60.8,30.06,South,185,7.0,11.0,65,0.00,,,0.01,Wunderground v.1.15,2015-05-04 15:11:00,
2015-05-04 10:17:00,73.8,61.7,30.06,South,185,6.0,11.0,66,0.00,,,0.01,Wunderground v.1.15,2015-05-04 15:17:00,
2015-05-04 10:23:00,74.2,61.2,30.06,South,188,5.0,6.0,64,0.00,,,0.01,Wunderground v.1.15,2015-05-04 15:23:00,
2015-05-04 10:29:00,74.8,61.8,30.06,South,187,6.0,8.0,64,0.00,,,0.01,Wunderground v.1.15,2015-05-04 15:29:00,
2015-05-04 10:35:00,75.1,61.2,30.06,SW,219,6.0,9.0,62,0.00,,,0.01,Wunderground v.1.15,2015-05-04 15:35:00,
2015-05-04 10:40:00,75.2,61.3,30.06,SSW,196,6.0,7.0,62,0.00,,,0.01,Wunderground v.1.15,2015-05-04 15:40:00,
2015-05-04 10:46:00,75.5,61.6,30.06,SW,215,7.0,8.0,62,0.00,,,0.01,Wunderground v.1.15,2015-05-04 15:46:00,
2015-05-04 10:52:00,76.0,61.1,30.06,SW,234,7.0,12.0,60,0.00,,,0.01,Wunderground v.1.15,2015-05-04 15:52:00,
2015-05-04 10:58:00,76.3,60.9,30.06,SW,217,7.0,12.0,59,0.00,,,0.01,Wunderground v.1.15,2015-05-04 15:58:00,
2015-05-04 11:04:00,76.4,61.5,30.06,SSW,203,7.0,9.0,60,0.00,,,0.01,Wunderground v.1.15,2015-05-04 16:04:00,
2015-05-04 11:09:00,76.5,61.1,30.06,South,188,8.0,14.0,59,0.00,,,0.01,Wunderground v.1.15,2015-05-04 16:09:00,
2015-05-04 11:15:00,76.9,61.0,30.06,SSW,194,9.0,11.0,58,0.00,,,0.01,Wunderground v.1.15,2015-05-04 16:15:00,
2015-05-04 11:21:00,77.6,61.2,30.06,SSW,211,8.0,14.0,57,0.00,,,0.01,Wunderground v.1.15,2015-05-04 16:21:00,
2015-05-04 11:27:00,77.7,60.2,30.06,SSW,211,7.0,14.0,55,0.00,,,0.01,Wunderground v.1.15,2015-05-04 16:27:00,
2015-05-04 11:32:00,77.5,60.1,30.07,SSW,206,8.0,9.0,55,0.00,,,0.01,Wunderground v.1.15,2015-05-04 16:32:00,
2015-05-04 11:38:00,77.1,59.7,30.07,SW,227,9.0,15.0,55,0.00,,,0.01,Wunderground v.1.15,2015-05-04 16:38:00,
2015-05-04 11:44:00,77.1,60.2,30.07,SW,218,9.0,14.0,56,0.00,,,0.01,Wunderground v.1.15,2015-05-04 16:44:00,
2015-05-04 11:50:00,77.3,59.9,30.07,SW,221,9.0,9.0,55,0.00,,,0.01,Wunderground v.1.15,2015-05-04 16:50:00,
2015-05-04 11:55:00,77.6,60.7,30.08,WSW,242,7.0,9.0,56,0.00,,,0.01,Wunderground v.1.15,2015-05-04 16:55:00,
2015-05-04 12:00:00,77.8,60.8,30.08,SSW,208,6.0,6.0,56,0.00,,,0.01,Wunderground v.1.15,2015-05-04 17:00:00,
2015-05-04 12:06:00,77.5,60.6,30.08,SW,236,9.0,14.0,56,0.00,,,0.01,Wunderground v.1.15,2015-05-04 17:06:00,
2015-05-04 12:12:00,77.8,61.3,30.08,SW,219,8.0,9.0,57,0.00,,,0.01,Wunderground v.1.15,2015-05-04 17:12:00,
2015-05-04 12:17:00,78.1,61.6,30.08,SW,233,7.0,11.0,57,0.00,,,0.01,Wunderground v.1.15,2015-05-04 17:17:00,
2015-05-04 12:23:00,78.3,60.8,30.08,WSW,239,7.0,10.0,55,0.00,,,0.01,Wunderground v.1.15,2015-05-04 17:23:00,
2015-05-04 12:29:00,78.1,60.1,30.08,WSW,251,10.0,15.0,54,0.00,,,0.01,Wunderground v.1.15,2015-05-04 17:29:00,
2015-05-04 12:35:00,78.3,60.8,30.07,SW,221,9.0,10.0,55,0.00,,,0.01,Wunderground v.1.15,2015-05-04 17:35:00,
2015-05-04 12:41:00,78.5,60.5,30.07,WSW,254,8.0,9.0,54,0.00,,,0.01,Wunderground v.1.15,2015-05-04 17:41:00,
2015-05-04 12:46:00,78.4,59.9,30.07,SW,222,9.0,14.0,53,0.00,,,0.01,Wunderground v.1.15,2015-05-04 17:46:00,
2015-05-04 12:52:00,78.7,61.2,30.07,SSW,212,8.0,9.0,55,0.00,,,0.01,Wunderground v.1.15,2015-05-04 17:52:00,
2015-05-04 13:04:00,78.9,60.3,30.07,SSW,206,10.0,11.0,53,0.00,,,0.01,Wunderground v.1.15,2015-05-04 18:04:00,
2015-05-04 13:09:00,79.3,60.1,30.07,WSW,240,10.0,13.0,52,0.00,,,0.01,Wunderground v.1.15,2015-05-04 18:09:00,
2015-05-04 13:15:00,79.5,60.3,30.07,SW,229,8.0,11.0,52,0.00,,,0.01,Wunderground v.1.15,2015-05-04 18:15:00,
2015-05-04 13:21:00,80.3,60.5,30.07,SW,225,8.0,8.0,51,0.00,,,0.01,Wunderground v.1.15,2015-05-04 18:21:00,
2015-05-04 13:27:00,80.7,59.8,30.07,SSW,195,7.0,11.0,49,0.00,,,0.01,Wunderground v.1.15,2015-05-04 18:27:00,
2015-05-04 13:33:00,80.4,60.1,30.07,SSW,197,7.0,10.0,50,0.00,,,0.01,Wunderground v.1.15,2015-05-04 18:33:00,
2015-05-04 13:38:00,80.2,59.3,30.07,SSW,201,8.0,14.0,49,0.00,,,0.01,Wunderground v.1.15,2015-05-04 18:38:00,
2015-05-04 13:44:00,80.3,59.4,30.07,SSW,200,9.0,12.0,49,0.00,,,0.01,Wunderground v.1.15,2015-05-04 18:44:00,
2015-05-04 13:50:00,80.9,61.1,30.07,SW,222,6.0,10.0,51,0.00,,,0.01,Wunderground v.1.15,2015-05-04 18:50:00,
2015-05-04 13:56:00,81.0,59.5,30.07,SSW,208,5.0,10.0,48,0.00,,,0.01,Wunderground v.1.15,2015-05-04 18:56:00,
2015-05-04 14:02:00,80.6,60.2,30.07,SSW,200,6.0,7.0,50,0.00,,,0.01,Wunderground v.1.15,2015-05-04 19:02:00,
2015-05-04 14:07:00,80.9,59.9,30.06,SSW,212,6.0,7.0,49,0.00,,,0.01,Wunderground v.1.15,2015-05-04 19:07:00,
2015-05-04 14:13:00,81.6,59.4,30.06,SSW,198,6.0,11.0,47,0.00,,,0.01,Wunderground v.1.15,2015-05-04 19:13:00,
2015-05-04 14:19:00,81.4,59.8,30.06,SW,218,8.0,11.0,48,0.00,,,0.01,Wunderground v.1.15,2015-05-04 19:19:00,
2015-05-04 14:25:00,81.1,58.4,30.06,SW,227,8.0,11.0,46,0.00,,,0.01,Wunderground v.1.15,2015-05-04 19:25:00,
2015-05-04 14:30:00,80.9,59.4,30.06,WSW,237,7.0,7.0,48,0.00,,,0.01,Wunderground v.1.15,2015-05-04 19:30:00,
2015-05-04 14:36:00,81.1,59.6,30.06,South,185,7.0,11.0,48,0.00,,,0.01,Wunderground v.1.15,2015-05-04 19:36:00,
2015-05-04 14:42:00,82.1,60.5,30.06,SW,232,7.0,11.0,48,0.00,,,0.01,Wunderground v.1.15,2015-05-04 19:42:00,
2015-05-04 14:48:00,82.5,60.2,30.06,South,169,9.0,17.0,47,0.00,,,0.01,Wunderground v.1.15,2015-05-04 19:48:00,
2015-05-04 14:54:00,82.7,59.2,30.05,SW,217,8.0,9.0,45,0.00,,,0.01,Wunderground v.1.15,2015-05-04 19:54:00,
2015-05-04 14:59:00,82.7,60.4,30.05,South,182,7.0,10.0,47,0.00,,,0.01,Wunderground v.1.15,2015-05-04 19:59:00,
2015-05-04 15:05:00,83.0,59.5,30.05,SSW,209,7.0,14.0,45,0.00,,,0.01,Wunderground v.1.15,2015-05-04 20:05:00,
2015-05-04 15:11:00,82.4,58.9,30.05,SSW,198,9.0,9.0,45,0.00,,,0.01,Wunderground v.1.15,2015-05-04 20:11:00,
2015-05-04 15:17:00,81.6,58.2,30.05,South,182,9.0,11.0,45,0.00,,,0.01,Wunderground v.1.15,2015-05-04 20:17:00,
2015-05-04 15:22:00,81.7,59.5,30.05,SSW,210,7.0,17.0,47,0.00,,,0.01,Wunderground v.1.15,2015-05-04 20:22:00,
2015-05-04 15:28:00,81.4,59.2,30.04,SSW,212,9.0,17.0,47,0.00,,,0.01,Wunderground v.1.15,2015-05-04 20:28:00,
2015-05-04 15:34:00,81.4,59.8,30.04,WSW,243,9.0,11.0,48,0.00,,,0.01,Wunderground v.1.15,2015-05-04 20:34:00,
2015-05-04 15:40:00,81.9,59.7,30.04,SSW,194,8.0,11.0,47,0.00,,,0.01,Wunderground v.1.15,2015-05-04 20:40:00,
2015-05-04 15:46:00,82.1,59.9,30.04,SSW,213,8.0,11.0,47,0.00,,,0.01,Wunderground v.1.15,2015-05-04 20:46:00,
2015-05-04 15:51:00,82.3,59.4,30.03,SW,227,8.0,11.0,46,0.00,,,0.01,Wunderground v.1.15,2015-05-04 20:51:00,
2015-05-04 15:57:00,82.6,59.1,30.03,SE,141,9.0,13.0,45,0.00,,,0.01,Wunderground v.1.15,2015-05-04 20:57:00,
2015-05-04 16:03:00,83.2,59.6,30.03,WSW,239,8.0,9.0,45,0.00,,,0.01,Wunderground v.1.15,2015-05-04 21:03:00,
2015-05-04 16:09:00,83.6,58.7,30.03,SSW,202,7.0,10.0,43,0.00,,,0.01,Wunderground v.1.15,2015-05-04 21:09:00,
2015-05-04 16:15:00,83.3,59.7,30.03,SW,223,9.0,14.0,45,0.00,,,0.01,Wunderground v.1.15,2015-05-04 21:15:00,
2015-05-04 16:20:00,83.5,59.9,30.03,WSW,249,8.0,9.0,45,0.00,,,0.01,Wunderground v.1.15,2015-05-04 21:20:00,
2015-05-04 16:26:00,83.5,58.6,30.03,SSW,207,8.0,10.0,43,0.00,,,0.01,Wunderground v.1.15,2015-05-04 21:26:00,
2015-05-04 16:32:00,82.8,57.4,30.03,SSE,150,8.0,12.0,42,0.00,,,0.01,Wunderground v.1.15,2015-05-04 21:32:00,
2015-05-04 16:38:00,82.9,57.5,30.04,SW,229,9.0,14.0,42,0.00,,,0.01,Wunderground v.1.15,2015-05-04 21:38:00,
2015-05-04 16:43:00,82.7,57.9,30.03,SSW,196,8.0,9.0,43,0.00,,,0.01,Wunderground v.1.15,2015-05-04 21:43:00,
2015-05-04 16:49:00,82.6,58.5,30.03,South,177,7.0,11.0,44,0.00,,,0.01,Wunderground v.1.15,2015-05-04 21:49:00,
2015-05-04 16:55:00,82.9,58.7,30.03,WSW,242,6.0,8.0,44,0.00,,,0.01,Wunderground v.1.15,2015-05-04 21:55:00,
2015-05-04 17:00:00,83.0,58.8,30.03,SSW,200,6.0,10.0,44,0.00,,,0.01,Wunderground v.1.15,2015-05-04 22:00:00,
2015-05-04 17:05:00,82.7,58.6,30.03,SSW,210,6.0,10.0,44,0.00,,,0.01,Wunderground v.1.15,2015-05-04 22:05:00,
2015-05-04 17:11:00,82.2,58.1,30.03,SW,223,5.0,8.0,44,0.00,,,0.01,Wunderground v.1.15,2015-05-04 22:11:00,
2015-05-04 17:17:00,82.0,57.9,30.03,SSW,211,6.0,8.0,44,0.00,,,0.01,Wunderground v.1.15,2015-05-04 22:17:00,
2015-05-04 17:22:00,82.1,58.7,30.02,SSW,210,3.0,5.0,45,0.00,,,0.01,Wunderground v.1.15,2015-05-04 22:22:00,
2015-05-04 17:28:00,82.1,58.7,30.02,SSW,210,3.0,5.0,45,0.00,,,0.01,Wunderground v.1.15,2015-05-04 22:28:00,
2015-05-04 17:34:00,82.0,58.6,30.02,South,188,4.0,8.0,45,0.00,,,0.01,Wunderground v.1.15,2015-05-04 22:34:00,
2015-05-04 17:40:00,81.9,59.1,30.02,SSW,194,6.0,6.0,46,0.00,,,0.01,Wunderground v.1.15,2015-05-04 22:40:00,
2015-05-04 17:46:00,81.7,58.9,30.02,SSW,192,5.0,6.0,46,0.00,,,0.01,Wunderground v.1.15,2015-05-04 22:46:00,
2015-05-04 17:51:00,81.8,59.0,30.02,SSW,199,4.0,8.0,46,0.00,,,0.01,Wunderground v.1.15,2015-05-04 22:51:00,
2015-05-04 17:57:00,81.7,59.5,30.02,SSW,194,4.0,8.0,47,0.00,,,0.01,Wunderground v.1.15,2015-05-04 22:57:00,
2015-05-04 18:03:00,81.5,59.3,30.02,SSW,194,4.0,5.0,47,0.00,,,0.01,Wunderground v.1.15,2015-05-04 23:03:00,
2015-05-04 18:09:00,81.6,60.0,30.02,SSW,194,3.0,6.0,48,0.00,,,0.01,Wunderground v.1.15,2015-05-04 23:09:00,
2015-05-04 18:15:00,81.7,59.5,30.01,SSW,205,3.0,4.0,47,0.00,,,0.01,Wunderground v.1.15,2015-05-04 23:15:00,
2015-05-04 18:20:00,81.7,58.9,30.01,SSW,200,4.0,4.0,46,0.00,,,0.01,Wunderground v.1.15,2015-05-04 23:20:00,
2015-05-04 18:26:00,81.5,59.3,30.01,South,186,4.0,7.0,47,0.00,,,0.01,Wunderground v.1.15,2015-05-04 23:26:00,
2015-05-04 18:32:00,81.5,59.3,30.01,SSW,198,5.0,7.0,47,0.00,,,0.01,Wunderground v.1.15,2015-05-04 23:32:00,
2015-05-04 18:38:00,81.6,59.4,30.01,South,189,5.0,7.0,47,0.00,,,0.01,Wunderground v.1.15,2015-05-04 23:38:00,
2015-05-04 18:44:00,81.6,59.4,30.01,SSW,198,5.0,5.0,47,0.00,,,0.01,Wunderground v.1.15,2015-05-04 23:44:00,
2015-05-04 18:49:00,81.6,60.0,30.01,SSW,198,4.0,8.0,48,0.00,,,0.01,Wunderground v.1.15,2015-05-04 23:49:00,
2015-05-04 18:55:00,81.4,59.8,30.02,South,186,4.0,6.0,48,0.00,,,0.01,Wunderground v.1.15,2015-05-04 23:55:00,
2015-05-04 19:00:00,81.3,59.7,30.02,SSW,195,4.0,4.0,48,0.00,,,0.01,Wunderground v.1.15,2015-05-05 00:00:00,
2015-05-04 19:05:00,81.2,60.2,30.02,SSW,198,4.0,4.0,49,0.00,,,0.01,Wunderground v.1.15,2015-05-05 00:05:00,
2015-05-04 19:11:00,81.1,60.1,30.02,SSW,192,3.0,5.0,49,0.00,,,0.01,Wunderground v.1.15,2015-05-05 00:11:00,
2015-05-04 19:17:00,80.8,59.9,30.02,SSW,193,3.0,6.0,49,0.00,,,0.01,Wunderground v.1.15,2015-05-05 00:17:00,
2015-05-04 19:22:00,80.7,60.3,30.02,SSW,196,3.0,3.0,50,0.00,,,0.01,Wunderground v.1.15,2015-05-05 00:22:00,